| time (UTC) | temp F | wind direction | speed MPH | gust MPH | rain 1hr in | rain 24hr in | rain mn in | humidity % | barometer mb |
| 20260904221222 | 70 | 0 | 0.0 | 0.0 | 0.00 | 0.00 | 0.00 | 75 | 1018.1 |
| 20260904220226 | 70 | 0 | 0.0 | 0.0 | 0.00 | 0.00 | 0.00 | 71 | 1018.2 |
| 20260904215226 | 70 | 0 | 0.0 | 0.0 | 0.00 | 0.00 | 0.00 | 74 | 1018.2 |
| 20260904214225 | 70 | 0 | 0.0 | 0.0 | 0.00 | 0.00 | 0.00 | 74 | 1018.3 |
| 20260904212217 | 71 | 0 | 0.0 | 0.0 | 0.00 | 0.00 | 0.00 | 75 | 1018.4 |
| 20260904211222 | 71 | 0 | 0.0 | 0.0 | 0.00 | 0.00 | 0.00 | 79 | 1018.4 |
| 20260904210223 | 71 | 0 | 0.0 | 0.0 | 0.00 | 0.00 | 0.00 | 79 | 1018.4 |
| 20260904205226 | 71 | 0 | 0.0 | 0.0 | 0.00 | 0.00 | 0.00 | 78 | 1018.4 |
| 20260904204225 | 72 | 0 | 0.0 | 0.0 | 0.00 | 0.00 | 0.00 | 73 | 1018.4 |
| 20260904203217 | 72 | 0 | 0.0 | 0.0 | 0.00 | 0.00 | 0.00 | 72 | 1018.3 |
| 20260904202221 | 72 | 0 | 0.0 | 0.0 | 0.00 | 0.00 | 0.00 | 73 | 1018.4 |
| 20260904201225 | 84 | 240 | 3.0 | 1.0 | 0.00 | 0.00 | 0.00 | 64 | 1018.3 |
| 20260904200224 | 84 | 240 | 3.0 | 1.0 | 0.00 | 0.00 | 0.00 | 64 | 1018.3 |
| 20260904195224 | 84 | 240 | 3.0 | 1.0 | 0.00 | 0.00 | 0.00 | 64 | 1018.3 |
| 20260904194227 | 84 | 240 | 3.0 | 1.0 | 0.00 | 0.00 | 0.00 | 64 | 1018.3 |
| 20260904193224 | 84 | 240 | 3.0 | 1.0 | 0.00 | 0.00 | 0.00 | 64 | 1018.3 |
| 20260904192224 | 84 | 240 | 3.0 | 1.0 | 0.00 | 0.00 | 0.00 | 64 | 1018.3 |
| 20260904191227 | 84 | 240 | 3.0 | 1.0 | 0.00 | 0.00 | 0.00 | 64 | 1018.3 |
| 20260904190225 | 84 | 240 | 3.0 | 1.0 | 0.00 | 0.00 | 0.00 | 64 | 1018.3 |
| 20260904185227 | 84 | 240 | 3.0 | 1.0 | 0.00 | 0.00 | 0.00 | 64 | 1018.3 |
| 20260904183225 | 84 | 240 | 3.0 | 1.0 | 0.00 | 0.00 | 0.00 | 64 | 1018.3 |
| 20260904182218 | 84 | 240 | 3.0 | 1.0 | 0.00 | 0.00 | 0.00 | 64 | 1018.3 |
| 20260904180226 | 84 | 240 | 3.0 | 1.0 | 0.00 | 0.00 | 0.00 | 64 | 1018.3 |
| 20260904175219 | 84 | 240 | 3.0 | 1.0 | 0.00 | 0.00 | 0.00 | 64 | 1018.3 |
| 20260904174225 | 84 | 240 | 3.0 | 1.0 | 0.00 | 0.00 | 0.00 | 64 | 1018.3 |
| 20260904173226 | 84 | 240 | 3.0 | 1.0 | 0.00 | 0.00 | 0.00 | 64 | 1018.3 |
| 20260904172219 | 84 | 240 | 3.0 | 1.0 | 0.00 | 0.00 | 0.00 | 64 | 1018.3 |
| 20260904171226 | 84 | 240 | 3.0 | 1.0 | 0.00 | 0.00 | 0.00 | 64 | 1018.3 |
| 20260904170227 | 84 | 240 | 3.0 | 1.0 | 0.00 | 0.00 | 0.00 | 64 | 1018.3 |
| 20260904165225 | 84 | 240 | 3.0 | 1.0 | 0.00 | 0.00 | 0.00 | 64 | 1018.3 |
| 20260904164225 | 84 | 240 | 3.0 | 1.0 | 0.00 | 0.00 | 0.00 | 64 | 1018.3 |
| 20260904163227 | 84 | 240 | 3.0 | 1.0 | 0.00 | 0.00 | 0.00 | 64 | 1018.3 |
| 20260904161225 | 84 | 240 | 3.0 | 1.0 | 0.00 | 0.00 | 0.00 | 64 | 1018.3 |
| 20260904160227 | 84 | 240 | 3.0 | 1.0 | 0.00 | 0.00 | 0.00 | 64 | 1018.3 |
| 20260904155225 | 84 | 240 | 3.0 | 1.0 | 0.00 | 0.00 | 0.00 | 64 | 1018.3 |
| 20260904154225 | 84 | 240 | 3.0 | 1.0 | 0.00 | 0.00 | 0.00 | 64 | 1018.3 |
| 20260904153226 | 84 | 240 | 3.0 | 1.0 | 0.00 | 0.00 | 0.00 | 64 | 1018.3 |
| 20260904152218 | 84 | 240 | 3.0 | 1.0 | 0.00 | 0.00 | 0.00 | 64 | 1018.3 |
| 20260904151227 | 84 | 240 | 3.0 | 1.0 | 0.00 | 0.00 | 0.00 | 64 | 1018.3 |
| 20260904150227 | 84 | 240 | 3.0 | 1.0 | 0.00 | 0.00 | 0.00 | 64 | 1018.3 |
| 20260904145227 | 84 | 240 | 3.0 | 1.0 | 0.00 | 0.00 | 0.00 | 64 | 1018.3 |
| 20260904144225 | 84 | 240 | 3.0 | 1.0 | 0.00 | 0.00 | 0.00 | 64 | 1018.3 |
| 20260904142218 | 84 | 240 | 3.0 | 1.0 | 0.00 | 0.00 | 0.00 | 64 | 1018.3 |
| 20260904141219 | 84 | 240 | 3.0 | 1.0 | 0.00 | 0.00 | 0.00 | 64 | 1018.3 |
| 20260904140221 | 84 | 240 | 3.0 | 1.0 | 0.00 | 0.00 | 0.00 | 64 | 1018.3 |
| 20260904135221 | 84 | 238 | 4.0 | 14.0 | 0.00 | 0.00 | 0.00 | 64 | 1018.3 |
| 20260904134227 | 84 | 232 | 1.0 | 1.0 | 0.00 | 0.00 | 0.00 | 64 | 1018.2 |
| 20260904133219 | 85 | 221 | 0.0 | 2.0 | 0.00 | 0.00 | 0.00 | 64 | 1018.1 |
| 20260904132218 | 84 | 0 | 2.0 | 0.0 | 0.00 | 0.00 | 0.00 | 67 | 1018.2 |
| 20260904131226 | 85 | 225 | 0.0 | 1.0 | 0.00 | 0.00 | 0.00 | 67 | 1018.3 |
| 20260904130218 | 84 | 227 | 0.0 | 1.0 | 0.00 | 0.00 | 0.00 | 68 | 1018.3 |
| 20260904125225 | 84 | 236 | 0.0 | 1.0 | 0.00 | 0.00 | 0.00 | 68 | 1018.4 |
| 20260904124221 | 84 | 183 | 1.0 | 1.0 | 0.00 | 0.00 | 0.00 | 68 | 1018.4 |
| 20260904123221 | 84 | 238 | 0.0 | 5.0 | 0.00 | 0.00 | 0.00 | 69 | 1018.6 |
| 20260904122218 | 84 | 216 | 0.0 | 6.0 | 0.00 | 0.00 | 0.00 | 68 | 1018.7 |
| 20260904121218 | 84 | 248 | 1.0 | 1.0 | 0.00 | 0.00 | 0.00 | 68 | 1018.7 |
| 20260904120219 | 84 | 245 | 0.0 | 1.0 | 0.00 | 0.00 | 0.00 | 69 | 1018.7 |
| 20260904115219 | 84 | 230 | 0.0 | 1.0 | 0.00 | 0.00 | 0.00 | 70 | 1018.7 |
| 20260904114219 | 83 | 231 | 0.0 | 1.0 | 0.00 | 0.00 | 0.00 | 71 | 1018.7 |
| 20260904113218 | 84 | 182 | 1.0 | 1.0 | 0.00 | 0.00 | 0.00 | 70 | 1018.8 |
| 20260904112218 | 85 | 231 | 0.0 | 1.0 | 0.00 | 0.00 | 0.00 | 69 | 1018.8 |
| 20260904111219 | 83 | 228 | 0.0 | 1.0 | 0.00 | 0.00 | 0.00 | 71 | 1018.9 |
| 20260904105219 | 84 | 199 | 0.0 | 1.0 | 0.00 | 0.00 | 0.00 | 69 | 1018.9 |
| 20260904104227 | 84 | 214 | 0.0 | 1.0 | 0.00 | 0.00 | 0.00 | 68 | 1018.9 |
| 20260904103219 | 84 | 231 | 0.0 | 1.0 | 0.00 | 0.00 | 0.00 | 66 | 1018.9 |
| 20260904102218 | 84 | 249 | 0.0 | 4.0 | 0.00 | 0.00 | 0.00 | 65 | 1018.9 |
| 20260904101220 | 84 | 233 | 0.0 | 1.0 | 0.00 | 0.00 | 0.00 | 67 | 1019.0 |
| 20260904100219 | 83 | 220 | 1.0 | 1.0 | 0.00 | 0.00 | 0.00 | 68 | 1019.1 |
| 20260904095226 | 84 | 225 | 0.0 | 1.0 | 0.00 | 0.00 | 0.00 | 66 | 1019.1 |
| 20260904094218 | 84 | 0 | 0.0 | 0.0 | 0.00 | 0.00 | 0.00 | 65 | 1019.2 |
| 20260904093225 | 84 | 229 | 0.0 | 1.0 | 0.00 | 0.00 | 0.00 | 65 | 1019.2 |
| 20260904092218 | 84 | 201 | 0.0 | 1.0 | 0.00 | 0.00 | 0.00 | 63 | 1019.2 |
| 20260904091219 | 84 | 234 | 0.0 | 1.0 | 0.00 | 0.00 | 0.00 | 63 | 1019.2 |
| 20260904090228 | 85 | 0 | 0.0 | 0.0 | 0.00 | 0.00 | 0.00 | 59 | 1019.3 |
| 20260904085221 | 84 | 0 | 0.0 | 0.0 | 0.00 | 0.00 | 0.00 | 58 | 1019.2 |
| 20260904084221 | 83 | 0 | 0.0 | 0.0 | 0.00 | 0.00 | 0.00 | 58 | 1019.1 |
| 20260904083227 | 82 | 0 | 0.0 | 0.0 | 0.00 | 0.00 | 0.00 | 60 | 1019.1 |
| 20260904082219 | 81 | 0 | 0.0 | 0.0 | 0.00 | 0.00 | 0.00 | 61 | 1019.0 |
| 20260904081222 | 79 | 0 | 0.0 | 0.0 | 0.00 | 0.00 | 0.00 | 63 | 1019.1 |
| 20260904080221 | 78 | 0 | 0.0 | 0.0 | 0.00 | 0.00 | 0.00 | 64 | 1019.1 |
| 20260904075220 | 77 | 0 | 0.0 | 0.0 | 0.00 | 0.00 | 0.00 | 65 | 1019.2 |
| 20260904074227 | 76 | 0 | 0.0 | 0.0 | 0.00 | 0.00 | 0.00 | 66 | 1019.1 |
| 20260904073225 | 75 | 0 | 0.0 | 0.0 | 0.00 | 0.00 | 0.00 | 67 | 1019.0 |
| 20260904072218 | 74 | 0 | 0.0 | 0.0 | 0.00 | 0.00 | 0.00 | 69 | 1019.0 |
| 20260904071227 | 74 | 0 | 0.0 | 0.0 | 0.00 | 0.00 | 0.00 | 69 | 1019.1 |
| 20260904070219 | 73 | 0 | 0.0 | 0.0 | 0.00 | 0.00 | 0.00 | 70 | 1019.0 |
| 20260904065219 | 72 | 0 | 0.0 | 0.0 | 0.00 | 0.00 | 0.00 | 71 | 1019.0 |
| 20260904064220 | 71 | 0 | 0.0 | 0.0 | 0.00 | 0.00 | 0.00 | 72 | 1019.0 |
| 20260904062219 | 70 | 0 | 0.0 | 0.0 | 0.00 | 0.00 | 0.00 | 73 | 1018.9 |
| 20260904061218 | 70 | 0 | 0.0 | 0.0 | 0.00 | 0.00 | 0.00 | 74 | 1018.8 |
| 20260904055220 | 70 | 0 | 0.0 | 0.0 | 0.00 | 0.00 | 0.00 | 74 | 1018.7 |
| 20260904054220 | 69 | 0 | 0.0 | 0.0 | 0.00 | 0.00 | 0.00 | 75 | 1018.8 |
| 20260904053220 | 68 | 0 | 0.0 | 0.0 | 0.00 | 0.00 | 0.00 | 76 | 1018.8 |
| 20260904052218 | 68 | 0 | 0.0 | 0.0 | 0.00 | 0.00 | 0.00 | 77 | 1018.9 |
| 20260904051218 | 68 | 0 | 0.0 | 0.0 | 0.00 | 0.00 | 0.00 | 76 | 1018.7 |
| 20260904050219 | 69 | 0 | 0.0 | 0.0 | 0.00 | 0.00 | 0.00 | 75 | 1018.7 |
| 20260904045219 | 68 | 0 | 0.0 | 0.0 | 0.00 | 0.00 | 0.00 | 76 | 1018.6 |
| 20260904044227 | 68 | 0 | 0.0 | 0.0 | 0.00 | 0.00 | 0.00 | 75 | 1018.6 |
| 20260904043227 | 67 | 0 | 0.0 | 0.0 | 0.00 | 0.00 | 0.00 | 78 | 1018.5 |
| 20260904042221 | 67 | 0 | 0.0 | 0.0 | 0.00 | 0.00 | 0.00 | 78 | 1018.4 |
| 20260904041226 | 67 | 0 | 0.0 | 0.0 | 0.00 | 0.00 | 0.00 | 79 | 1018.5 |
| 20260904040226 | 68 | 0 | 0.0 | 0.0 | 0.00 | 0.00 | 0.00 | 75 | 1018.4 |
| 20260904034225 | 69 | 0 | 0.0 | 0.0 | 0.00 | 0.00 | 0.00 | 73 | 1018.5 |
| 20260904033220 | 68 | 0 | 0.0 | 0.0 | 0.00 | 0.00 | 0.00 | 75 | 1018.4 |
| 20260904032219 | 69 | 0 | 0.0 | 0.0 | 0.00 | 0.00 | 0.00 | 74 | 1018.4 |
| 20260904031225 | 68 | 0 | 0.0 | 0.0 | 0.00 | 0.00 | 0.00 | 76 | 1018.4 |
| 20260904030225 | 67 | 0 | 0.0 | 0.0 | 0.00 | 0.00 | 0.00 | 77 | 1018.3 |
| 20260904025227 | 67 | 0 | 0.0 | 0.0 | 0.00 | 0.00 | 0.00 | 77 | 1018.3 |
| 20260904024222 | 67 | 0 | 0.0 | 0.0 | 0.00 | 0.00 | 0.00 | 77 | 1018.3 |
| 20260904022219 | 68 | 0 | 0.0 | 0.0 | 0.00 | 0.00 | 0.00 | 76 | 1018.2 |
| 20260904021221 | 69 | 0 | 0.0 | 0.0 | 0.00 | 0.00 | 0.00 | 72 | 1018.2 |
| 20260904020227 | 69 | 0 | 0.0 | 0.0 | 0.00 | 0.00 | 0.00 | 74 | 1018.2 |
| 20260904015220 | 68 | 0 | 0.0 | 0.0 | 0.00 | 0.00 | 0.00 | 76 | 1018.2 |
| 20260904014220 | 69 | 0 | 0.0 | 0.0 | 0.00 | 0.00 | 0.00 | 75 | 1018.2 |
| 20260904013221 | 70 | 0 | 0.0 | 0.0 | 0.00 | 0.00 | 0.00 | 73 | 1018.3 |
| 20260904012219 | 70 | 0 | 0.0 | 0.0 | 0.00 | 0.00 | 0.00 | 73 | 1018.2 |
| 20260904011220 | 70 | 0 | 0.0 | 0.0 | 0.00 | 0.00 | 0.00 | 74 | 1018.2 |
| 20260904010222 | 70 | 0 | 0.0 | 0.0 | 0.00 | 0.00 | 0.00 | 73 | 1018.3 |
| 20260904005222 | 70 | 0 | 0.0 | 0.0 | 0.00 | 0.00 | 0.00 | 75 | 1018.3 |
| 20260904004226 | 70 | 0 | 0.0 | 0.0 | 0.00 | 0.00 | 0.00 | 76 | 1018.2 |
| 20260904002219 | 69 | 0 | 0.0 | 0.0 | 0.00 | 0.00 | 0.00 | 78 | 1018.3 |
| 20260904001227 | 70 | 0 | 0.0 | 0.0 | 0.00 | 0.00 | 0.00 | 77 | 1018.3 |
| 20260904000228 | 69 | 0 | 0.0 | 0.0 | 0.00 | 0.00 | 0.00 | 80 | 1018.4 |
| 20260903235225 | 71 | 0 | 0.0 | 0.0 | 0.00 | 0.00 | 0.00 | 76 | 1018.4 |
| 20260903234218 | 71 | 0 | 0.0 | 0.0 | 0.00 | 0.00 | 0.00 | 79 | 1018.3 |
| 20260903233218 | 71 | 0 | 0.0 | 0.0 | 0.00 | 0.00 | 0.00 | 78 | 1018.3 |
| 20260903232218 | 71 | 0 | 0.0 | 0.0 | 0.00 | 0.00 | 0.00 | 78 | 1018.3 |
| 20260903231218 | 71 | 0 | 0.0 | 0.0 | 0.00 | 0.00 | 0.00 | 78 | 1018.3 |
| 20260903230218 | 72 | 0 | 0.0 | 0.0 | 0.00 | 0.00 | 0.00 | 78 | 1018.3 |
| 20260903224219 | 71 | 0 | 0.0 | 0.0 | 0.00 | 0.00 | 0.00 | 81 | 1018.4 |
| 20260903223219 | 71 | 0 | 0.0 | 0.0 | 0.00 | 0.00 | 0.00 | 84 | 1018.3 |